Flag for U.S.A. Weather past 2 weeks in Chicago, Illinois, U.S.A.

51 °F


Feels Like: 46 °F
Forecast: 53 / 60 °F
Wind: 17 mph from Northeast

Location: Chicago Midway Airport

Current Time: Oct 4, 2015 at 12:57:15 AM

Latest Report: Oct 3, 2015 at 11:53 PM

Visibility: 10 mi

Pressure: 30.18 "Hg

Humidity: 74%

Dew point: 43 °F

Location of ChicagoLocation

Historic Weather in Chicago — Graph


Chicago temperature yesterday

Maximum temperature yesterday: 55 °F (at 11:53 AM)
Minimum temperature yesterday: 50 °F (at 5:53 AM)
Average temperature yesterday: 52 °F

Past Weeks' High & Low Weather Summary

High80 °F (Sep 22, 3:53 PM)93% (Sep 19, 12:53 AM)30.34 "Hg (Sep 19, 12:53 AM)
Low50 °F (Oct 3, 5:53 AM)31% (Sep 22, 4:53 PM)29.67 "Hg (Sep 19, 12:53 AM)
Average65 °F63%30.14 "Hg
* Reported Sep 18 11:53 PM — Oct 3 11:53 PM, Chicago, Weather by CustomWeather, © 2015

Note: Actual official high and low records may vary slightly from our data, if they occured in-between our weather recording intervals... More about our weather records


Chicago weather history for previous 24 hours

Time TempWeatherWind HumidityBarometerVisibility
11:53 PM
Sat, Oct 3
51 °FOvercast.17 mph74%30.18 "Hg10 mi
9:53 PM51 °FOvercast.20 mph74%30.19 "Hg10 mi
8:53 PM50 °FOvercast.18 mph77%30.20 "Hg10 mi
7:53 PM50 °FOvercast.21 mph77%30.20 "Hg10 mi
6:53 PM50 °FDrizzle. Mostly cloudy.21 mph80%30.21 "Hg9 mi
5:53 PM50 °FLight rain. Fog.17 mph83%30.21 "Hg3 mi
4:53 PM51 °FDrizzle. Mostly cloudy.18 mph77%30.19 "Hg10 mi
3:53 PM53 °FDrizzle. Mostly cloudy.23 mph64%30.19 "Hg10 mi
2:53 PM54 °FOvercast.20 mph59%30.18 "Hg10 mi
1:53 PM55 °FMostly cloudy.22 mph57%30.18 "Hg10 mi
12:53 PM54 °FMostly cloudy.23 mph57%30.19 "Hg10 mi
11:53 AM55 °FMostly cloudy.22 mph57%30.18 "Hg10 mi
10:53 AM54 °FCloudy.21 mph57%30.19 "Hg10 mi
9:53 AM52 °FMostly cloudy.21 mph61%30.21 "Hg10 mi
8:53 AM51 °FPartly sunny.18 mph63%30.21 "Hg10 mi
7:53 AM51 °FPartly sunny.18 mph63%30.20 "Hg10 mi
6:53 AM50 °FLight rain. Mostly cloudy.17 mph68%30.20 "Hg10 mi
5:53 AM50 °FLight rain. Mostly cloudy.16 mph68%30.22 "Hg9 mi
4:53 AM52 °FDrizzle. Overcast.16 mph55%30.22 "Hg10 mi
2:53 AM52 °FMostly cloudy.20 mph53%30.23 "Hg10 mi
Weather by CustomWeather, © 2015

See weather overviewHow to use our weather pages